Content
SEND FEEDBACK

Daily
Averages
Monthly
Summary
United States of America

ST. LOUIS, MISSOURI


Home > North America > United States > Missouri
Elevation: 163 meters     Latitude: 38 45N     Longitude: 090 22W

WEATHER
 
SELECT A DAY
Number of Records: 200,566;   Date Range: 1/1/95 - 11/24/14
 
SHARE

PRINT THIS DATA

[ ← Previous Day ]
WEATHER ALMANAC - 22 MAY, 2013
[ Next Day → ]
[ °F ]   °C
Weather ElementAverageHighLow
Temperature20.2 °C23.9 °C (12:54 pm)17.2 °C (4:54 am)
Dewpoint13.9 °C16.1 °C (1:54 am)11.7 °C (8:54 pm)
Humidity68.3 %90 % (4:54 am)51 % (10:54 am)
Barometer1007.5 hPa1011.5 hPa (11:54 pm)1005.1 hPa (2:54 am)
Wind Speed15.4 km/h24.1 km/h (3:54 pm)
Wind Gust40.7 km/h (11:54 am)
Weather ElementAverage
Visibility16.1 km
Wind DirectionWSW (241.7 °)

Weather ElementTotal
Precipitation---
Cooling Degree Days2.2 (Base 18.3)
Growing Degree Days10.6 (Base 10)
Averaged from 23 records on 22 May, 2013
WEATHER CONDITIONS BREAKOUT
WIND DIRECTION BREAKOUT
WEATHER BY HOUR - 22 MAY, 2013
[ °F ]   °C
Local TimeTemperatureDewpointHumidityBarometerVisibilityWind DirectionWind SpeedGust SpeedPrecipitationEventsConditions
1:54 AM18.3 °C16.1 °C87 %1005.8 hPa16.1 kmSouth (180°)13 km/hMostly Cloudy
2:54 AM18.3 °C16.1 °C87 %1005.1 hPa16.1 kmSSW (200°)11.1 km/hOvercast
3:54 AM18.3 °C15.6 °C84 %1005.1 hPa16.1 kmSSW (200°)13 km/hScattered Clouds
4:54 AM17.2 °C15.6 °C90 %1005.1 hPa16.1 kmSSW (200°)13 km/hPartly Cloudy
5:54 AM17.8 °C15.6 °C87 %1005.4 hPa16.1 kmSW (220°)13 km/hOvercast
6:54 AM17.8 °C15.6 °C87 %1005.8 hPa16.1 kmSW (230°)14.8 km/hMostly Cloudy
7:54 AM18.9 °C15.6 °C81 %1006.1 hPa16.1 kmWSW (250°)18.5 km/hPartly Cloudy
8:54 AM20.6 °C14.4 °C68 %1006.8 hPa16.1 kmWest (260°)13 km/hScattered Clouds
9:54 AM21.7 °C13.9 °C61 %1006.8 hPa16.1 kmSW (230°)13 km/hPartly Cloudy
10:54 AM22.8 °C12.2 °C51 %1007.1 hPa16.1 kmWSW (250°)20.4 km/hScattered Clouds
11:54 AM22.8 °C12.8 °C53 %1007.1 hPa16.1 kmSW (230°)22.2 km/h40.7 km/hMostly Cloudy
12:54 PM23.9 °C14.4 °C55 %1007.1 hPa16.1 kmWSW (250°)22.2 km/h31.5 km/hMostly Cloudy
1:54 PM23.9 °C13.3 °C51 %1007.5 hPa16.1 kmWSW (240°)22.2 km/h33.3 km/hMostly Cloudy
2:54 PM22.8 °C13.3 °C55 %1007.8 hPa16.1 kmWest (260°)20.4 km/hMostly Cloudy
3:54 PM22.8 °C13.3 °C55 %1007.8 hPa16.1 kmWSW (250°)24.1 km/h33.3 km/hMostly Cloudy
4:54 PM22.8 °C13.3 °C55 %1007.8 hPa16.1 kmWest (260°)20.4 km/hMostly Cloudy
5:54 PM21.7 °C13.3 °C59 %1008.1 hPa16.1 kmWest (270°)13 km/hMostly Cloudy
6:54 PM21.1 °C12.8 °C59 %1008.5 hPa16.1 kmWest (280°)14.8 km/hOvercast
7:54 PM20 °C12.2 °C61 %1009.1 hPa16.1 kmWest (280°)13 km/hMostly Cloudy
8:54 PM18.3 °C11.7 °C65 %1010.2 hPa16.1 kmWest (270°)9.3 km/hScattered Clouds
9:54 PM17.2 °C12.8 °C75 %1010.8 hPa16.1 kmWSW (250°)9.3 km/hOvercast
10:54 PM17.8 °C12.8 °C73 %1011.2 hPa16.1 kmWest (260°)9.3 km/hOvercast
11:54 PM17.2 °C12.2 °C72 %1011.5 hPa16.1 kmWSW (240°)11.1 km/hOvercast
Hourly data recorded from KSUS, located 0 kilometers away from St. Louis, Missouri







STORIES FROM OUR PARTNERS